Terug naar catalogus

STARLINK-5164

ActiefCommunicatieVLEO
NORAD 54178·PAYLOAD·🇺🇸 United States

Gelanceerd Oct 28, 2022 vanaf Vandenberg Space Force Base

Loading…

Volgende Passages (komende 24 uur)

TLE

VersSource: CelesTrak SupGP

Epoch: Sep 15, 2026, 02:25 UTC

1 54178C 22141X   26258.10118056 -.00036818  00000+0 -10880-2 0  2584
2 54178  53.1582 218.9570 0001313  89.1781 316.9419 15.34404083    11

Volg STARLINK-5164 in realtime met AllMySat

Download on the App Store